EW3845 Weather Reports


time (UTC)temp
C
wind
direction
speed
KPH
gust
KPH
rain 1hr
cm
rain 24hr
cm
rain mn
cm
humidity
%
barometer
mb
20260831101548 18 303 0.0 0.0 0.03 0.08 0.08 80 1010.7
20260831100110 20 360 0.0 0.0 0.00 0.05 0.05 72 1010.2
20260831094545 20 360 0.0 0.0 0.00 0.05 0.05 72 1010.1
20260831093045 20 302 0.0 0.0 0.00 0.05 0.05 73 1010.0
20260831091549 19 248 0.0 0.0 0.00 0.05 0.05 75 1010.0
20260831090040 20 254 0.0 0.0 0.00 0.05 0.05 74 1010.0
20260831084554 19 360 0.0 0.0 0.00 0.05 0.05 76 1010.0
20260831083040 18 360 0.0 0.0 0.00 0.05 0.05 78 1010.3
20260831081536 18 299 0.0 0.0 0.00 0.05 0.05 78 1010.3
20260831080035 18 360 0.0 0.0 0.00 0.05 0.05 77 1010.3
20260831074537 18 360 0.0 0.0 0.00 0.05 0.05 78 1010.3
20260831073038 18 24 0.0 0.0 0.00 0.05 0.05 79 1010.3
20260831071533 18 294 0.0 0.0 0.00 0.05 0.05 81 1010.2
20260831070033 18 256 0.0 0.0 0.00 0.05 0.05 85 1010.0
20260831064532 17 190 0.0 0.0 0.00 0.05 0.05 86 1009.9
20260831063032 17 192 0.0 0.0 0.00 0.05 0.05 86 1010.2
20260831061532 17 360 0.0 0.0 0.00 0.05 0.05 87 1009.9
20260831060031 17 180 0.0 0.0 0.00 0.05 0.05 88 1009.9
20260831054531 17 360 0.0 0.0 0.00 0.05 0.05 88 1009.8
20260831053035 16 360 0.0 0.0 0.00 0.05 0.05 89 1009.8
20260831051529 16 360 0.0 0.0 0.00 0.05 0.05 89 1009.7
20260831050031 16 360 0.0 0.0 0.00 0.05 0.05 89 1009.7
20260831044530 16 360 0.0 0.0 0.00 0.05 0.05 89 1009.7
20260831043036 16 360 0.0 0.0 0.00 0.05 0.05 89 1009.6
20260831041526 16 275 0.0 0.0 0.00 0.05 0.05 89 1009.6
20260831040026 16 218 0.0 0.0 0.00 0.05 0.05 89 1009.5
20260831034525 16 213 0.0 0.0 0.00 0.05 0.05 90 1009.4
20260831033025 16 252 0.0 0.0 0.00 0.05 0.05 90 1009.4
20260831031530 16 254 0.0 0.0 0.00 0.05 0.05 90 1009.4
20260831030022 16 360 0.0 0.0 0.00 0.05 0.05 89 1009.4
20260831024525 16 360 0.0 0.0 0.00 0.05 0.05 89 1009.4
20260831023021 16 360 0.0 0.0 0.03 0.05 0.05 88 1009.1
20260831021519 17 360 0.0 0.0 0.05 0.05 0.05 87 1009.2
20260831020017 17 360 0.0 0.0 0.05 0.05 0.05 87 1009.1
20260831014515 17 360 0.0 0.0 0.05 0.05 0.05 85 1009.3
20260831013030 17 257 0.0 0.0 0.03 0.03 0.03 83 1009.6
20260831011517 17 225 0.0 0.0 0.00 0.00 0.00 80 1009.3
20260831010015 18 226 0.0 0.0 0.00 0.05 0.00 79 1009.3
20260831004513 18 225 0.0 0.0 0.00 0.05 0.00 79 1009.3
20260831003014 18 225 0.0 0.0 0.00 0.05 0.00 79 1009.4
20260831001518 18 225 0.0 0.0 0.00 0.05 0.00 78 1009.7
20260831000003 18 225 0.0 0.0 0.00 0.05 0.00 77 1009.8
20260830234502 18 230 0.0 0.0 0.00 0.05 0.00 77 1009.8
20260830233001 18 232 0.0 0.0 0.00 0.05 0.00 76 1009.7
20260830231607 18 238 0.0 0.0 0.00 0.05 0.00 76 1009.7
20260830230058 18 238 0.0 0.0 0.00 0.05 0.00 76 1009.8
20260830224607 19 238 0.0 0.0 0.00 0.05 0.00 76 1009.9
20260830223056 19 239 0.0 0.0 0.00 0.05 0.00 75 1009.9
20260830221554 19 240 0.0 0.0 0.00 0.05 0.00 75 1010.1
20260830220056 19 242 0.0 0.0 0.00 0.05 0.05 75 1010.2
20260830214553 19 248 0.0 0.0 0.00 0.05 0.05 75 1010.2
20260830213052 19 254 0.0 0.0 0.00 0.05 0.05 75 1010.4
20260830211551 19 360 0.0 0.0 0.00 0.05 0.05 75 1010.3
20260830210100 19 360 0.0 0.0 0.00 0.05 0.05 75 1010.5
20260830204554 19 360 0.0 0.0 0.00 0.05 0.05 76 1010.6
20260830203050 19 360 0.0 0.0 0.00 0.05 0.05 76 1010.6
20260830201554 19 360 0.0 0.0 0.00 0.05 0.05 76 1010.7
20260830200104 19 360 0.0 0.0 0.00 0.05 0.05 75 1010.9
20260830194608 19 360 0.0 0.0 0.00 0.05 0.05 75 1011.0
20260830193048 19 360 0.0 0.0 0.00 0.05 0.05 75 1011.0
20260830191547 19 360 0.0 0.0 0.00 0.05 0.05 76 1011.2
20260830190047 20 360 0.0 0.0 0.00 0.15 0.05 75 1011.0
20260830184547 20 360 0.0 0.0 0.00 0.15 0.05 74 1011.0
20260830183047 20 360 0.0 0.0 0.00 0.15 0.05 74 1011.0
20260830182554 20 360 0.0 0.0 0.00 0.71 0.05 74 1011.3
20260830182042 20 360 0.0 0.0 0.00 0.71 0.05 73 1011.3
20260830181656 20 360 0.0 0.0 0.00 0.15 0.05 73 1011.0
20260830181556 20 360 0.0 0.0 0.00 0.71 0.05 73 1011.2
20260830181041 21 360 0.0 0.0 0.00 0.71 0.05 73 1011.3
20260830180553 21 360 0.0 0.0 0.00 0.71 0.05 72 1011.3
20260830180141 20 360 0.0 0.0 0.00 0.23 0.05 72 1011.1
20260830180041 21 360 0.0 0.0 0.00 1.19 0.05 72 1011.3
20260830175554 21 360 0.0 0.0 0.00 1.19 0.05 72 1011.4
20260830175042 21 360 0.0 0.0 0.00 1.19 0.05 72 1011.5
20260830174656 21 360 0.0 0.0 0.00 0.23 0.05 71 1011.2
20260830174553 21 360 0.0 0.0 0.00 1.19 0.05 71 1011.5
20260830174042 21 360 0.0 0.0 0.00 1.19 0.05 72 1011.4
20260830173556 21 360 0.0 0.0 0.00 1.19 0.05 71 1011.5
20260830173144 21 360 0.0 0.0 0.00 0.23 0.05 72 1011.3
20260830173044 21 360 0.0 0.0 0.00 1.19 0.05 72 1011.6
20260830172556 21 360 0.0 0.0 0.00 1.19 0.05 71 1011.6
20260830172045 21 360 0.0 0.0 0.00 1.19 0.05 70 1011.5
20260830171701 21 360 0.0 0.0 0.00 0.23 0.05 70 1011.3
20260830171558 21 360 0.0 0.0 0.00 1.19 0.05 70 1011.6
20260830171046 22 360 0.0 0.0 0.00 1.19 0.05 70 1011.6
20260830170559 22 360 0.0 0.0 0.00 1.19 0.05 70 1011.6
20260830170047 22 360 0.0 0.0 0.00 1.19 0.05 68 1011.6
20260830170001 21 360 0.0 0.0 0.00 0.23 0.05 68 1011.3
20260830165600 22 360 0.0 0.0 0.00 1.19 0.05 68 1011.7
20260830165046 22 360 0.0 0.0 0.00 1.19 0.05 68 1011.7
20260830164559 22 360 0.0 0.0 0.00 1.19 0.05 68 1011.7
20260830164514 22 360 0.0 0.0 0.00 0.23 0.05 68 1011.4
20260830164109 22 360 0.0 0.0 0.00 1.19 0.05 67 1011.9
20260830163559 22 360 0.0 0.0 0.00 1.19 0.05 67 1011.9
20260830163148 22 360 0.0 0.0 0.00 0.23 0.05 67 1011.5
20260830163047 22 360 0.0 0.0 0.00 1.19 0.05 66 1011.8
20260830162619 22 360 0.0 0.0 0.00 1.19 0.05 66 1011.8
20260830162043 22 360 0.0 0.0 0.00 1.19 0.05 66 1012.0
20260830161656 22 360 0.0 0.0 0.00 0.23 0.05 65 1011.8
20260830161555 22 287 0.0 0.0 0.00 1.19 0.05 65 1012.0
20260830161043 22 288 0.0 0.0 0.00 1.19 0.05 65 1012.0
20260830160554 22 360 0.0 0.0 0.00 1.19 0.05 66 1012.0
20260830160143 22 360 0.0 0.0 0.00 0.23 0.05 66 1011.7
20260830160042 22 360 0.0 0.0 0.00 1.19 0.05 66 1011.9
20260830155552 22 285 0.0 0.0 0.00 1.19 0.05 66 1011.9
20260830155100 22 360 0.0 0.0 0.00 1.19 0.05 65 1011.9
20260830154653 22 285 0.0 0.0 0.00 0.23 0.05 66 1011.6
20260830154551 22 285 0.0 0.0 0.00 1.19 0.05 66 1011.8
20260830154101 22 285 0.0 0.0 0.00 1.19 0.05 65 1011.8
20260830153047 22 294 0.0 0.0 0.00 0.23 0.05 65 1011.6
20260830151541 22 291 0.0 0.0 0.00 0.23 0.05 65 1011.7
20260830150044 22 360 0.0 0.0 0.00 0.23 0.05 64 1011.8
20260830144532 22 360 0.0 0.0 0.00 0.23 0.05 63 1011.9
20260830143030 22 360 0.0 0.0 0.00 0.23 0.05 65 1011.9
20260830141631 22 360 0.0 0.0 0.00 0.23 0.05 67 1011.8
20260830140028 22 286 0.0 0.0 0.00 0.23 0.05 67 1011.9
20260830134533 22 284 0.0 0.0 0.00 0.23 0.05 67 1011.9
20260830133030 22 290 0.0 0.0 0.00 0.23 0.05 67 1011.9
20260830131534 22 288 0.0 0.0 0.00 0.23 0.05 69 1011.9
20260830130024 22 288 0.0 0.0 0.00 0.23 0.05 69 1012.0
20260830124524 22 360 0.0 0.0 0.00 0.23 0.05 70 1012.1
20260830123022 22 289 0.0 0.0 0.00 0.23 0.05 70 1012.0
20260830121522 21 286 0.0 0.0 0.00 0.23 0.05 73 1012.0
20260830120018 21 287 0.0 0.0 0.00 0.23 0.05 73 1012.0
20260830114520 21 360 0.0 0.0 0.00 0.23 0.05 74 1011.8
20260830113019 21 286 0.0 0.0 0.00 0.23 0.05 74 1011.8
20260830111522 21 360 0.0 0.0 0.00 0.23 0.05 73 1011.8
20260830110016 21 294 0.0 0.0 0.00 0.23 0.05 74 1011.8
20260830104517 21 360 0.0 0.0 0.00 0.23 0.05 73 1011.8
20260830103016 21 292 0.0 0.0 0.00 0.23 0.05 75 1011.9